Location: Unspecified
(51.0950°N, 12.9690°E)
Time: 23:39:22
(UTC+00:00)

First-Move - Pass Details

Date: 01 May 2024
Orbit: 539 x 600 km, 97.7° (Epoch: 17 May)

Event Time Altitude Azimuth Distance (km) Brightness Sun altitude
Rises 02:40:59 0° 14° (NNE) 2,874 ? -8.8°
Reaches altitude 10° 02:43:10 10° 16° (NNE) 1,966 ? -8.5°
Maximum altitude 02:47:28 81° 103° (ESE) 619 ? -8.0°
Drops below altitude 10° 02:51:41 10° 192° (SSW) 1,937 ? -7.4°
Enters shadow 02:53:35 - 193° (SSW) 2,719 ? -7.2°
